Flag for Central African Republic Weather past 2 weeks in Bangui, Central African Republic

Now
84 °F

Partly sunny.


Feels Like: 91 °F
Forecast: 71 / 76 °F
Wind: 2 mph from North

Location: Bangui Airport

Current Time: Jul 24, 2014 at 4:40:56 PM

Latest Report: Jul 24, 2014 at 4:00 PM


Visibility: N/A

Pressure: 29.89 "Hg

Humidity: 70%

Dew point: 73 °F

Location of BanguiLocation

Historic Weather in Bangui — Graph

°F

Bangui temperature yesterday

Maximum temperature yesterday: 90 °F (at 1:00 PM)
Minimum temperature yesterday: 72 °F (at 11:00 PM)
Average temperature yesterday: 77 °F

Past Weeks' High & Low Weather Summary

 TemperatureHumidityPressure
High95 °F (Jul 14, 2:00 PM)100% (Jul 9, 10:00 PM)30.07 "Hg (Jul 9, 10:00 PM)
Low72 °F (Jul 10, 5:00 AM)49% (Jul 14, 3:00 PM)29.77 "Hg (Jul 14, 5:00 PM)
Average78 °F86%29.94 "Hg
* Reported Jul 9 3:00 PM — Jul 24 3:00 PM, Bangui, Weather by CustomWeather, © 2014

Note: Actual official high and low records may vary slightly from our data, if they occured in-between our weather recording intervals... More about our weather records

Advertising

Bangui weather history for previous 24 hours

 ConditionsComfort  
Time TempWeatherWind HumidityBarometerVisibility
3:00 PM
Jul 24
82 °FBroken clouds.5 mph70%29.89 "HgN/A
2:00 PM82 °FBroken clouds.6 mph70%29.92 "HgN/A
1:00 PM82 °FPartly sunny.7 mph70%29.95 "HgN/A
12:00 PM81 °FLight rain. Partly sunny.2 mph79%29.98 "HgN/A
11:00 AM77 °FPartly sunny.3 mph89%30.01 "HgN/A
10:00 AM77 °FPartly sunny.2 mph89%30.01 "HgN/A
9:00 AM75 °FMostly cloudy.No wind94%30.01 "HgN/A
8:00 AM73 °FMostly cloudy.No wind94%30.01 "Hg5 mi
7:00 AM73 °FMore clouds than sun.No wind94%30.01 "Hg4 mi
6:00 AM72 °FScattered clouds.1 mph100%29.98 "Hg5 mi
5:00 AM72 °FPassing clouds.No wind100%29.95 "Hg5 mi
4:00 AM72 °FPassing clouds.1 mph100%29.95 "Hg5 mi
3:00 AM72 °FMild.N/A100%29.95 "HgN/A
2:00 AM72 °FClear.1 mph100%29.95 "Hg10 mi
1:00 AM72 °FClear.2 mph100%29.98 "Hg10 mi
12:00 AM73 °FClear.2 mph94%29.98 "Hg10 mi
11:00 PM
Jul 23
72 °FClear.5 mph100%29.98 "Hg10 mi
10:00 PM73 °FClear.No wind94%29.98 "Hg10 mi
9:00 PM73 °FClear.2 mph94%29.98 "Hg4 mi
8:00 PM73 °FClear.3 mph94%29.95 "Hg4 mi
7:00 PM73 °FMostly cloudy.No wind94%29.92 "HgN/A
6:00 PM73 °FLight rain. More clouds than sun.6 mph94%29.89 "HgN/A
5:00 PM75 °FLight rain. More clouds than sun.7 mph94%29.92 "HgN/A
4:00 PM73 °FLight rain. More clouds than sun.2 mph94%29.89 "HgN/A
Weather by CustomWeather, © 2014

See weather overviewHow to use our weather pages